{"data":{"norad_id":63662,"epoch":"2026-09-19T20:29:23.574048Z","epoch_age_seconds":74188,"freshness":"FRESH","line1":"1 63662U 25084A   26262.85374507  .00000117  00000+0  00000+0 0  9996","line2":"2 63662   4.2192 278.8131 0001193 204.1714 203.5461  1.00273883  5330","mean_motion":1.00273883,"eccentricity":0.0001193,"inclination_deg":4.2192,"raan_deg":278.8131,"arg_perigee_deg":204.1714,"mean_anomaly_deg":203.5461,"bstar":0,"rev_number":533,"period_min":1436.06685701,"perigee_km":35780.976643527,"apogee_km":35791.037008244,"semimajor_km":42164.143825886,"source":"CELESTRAK","updated_at":"2026-09-20T09:00:35.343942Z"}}